Time,TemperatureF,DewpointF,PressureIn,WindDirection,WindDirectionDegrees,WindSpeedMPH,WindSpeedGustMPH,Humidity,HourlyPrecipIn,Conditions,Clouds,dailyrainin,SoftwareType,DateUTC
2013-11-08 00:00:00,56.4,47.9,30.06,NW,309,4.6,4.6,73,0.00,RA,,0.00,WeatherDisplay:10.37,2013-11-08 05:00:00,
2013-11-08 00:01:00,56.4,47.9,30.06,NW,326,6.0,6.0,73,0.00,RA,,0.00,WeatherDisplay:10.37,2013-11-08 05:01:00,
2013-11-08 00:02:00,56.4,47.9,30.06,WNW,300,8.1,8.1,73,0.00,RA,,0.00,WeatherDisplay:10.37,2013-11-08 05:02:00,
2013-11-08 00:07:00,56.2,47.7,30.06,NNW,330,3.5,3.5,73,0.00,RA,,0.00,WeatherDisplay:10.37,2013-11-08 05:07:00,
2013-11-08 00:12:00,56.1,47.6,30.06,NW,307,0.0,0.0,73,0.00,CLR,,0.00,WeatherDisplay:10.37,2013-11-08 05:12:00,
2013-11-08 00:17:00,56.0,47.5,30.07,NW,311,3.5,0.0,73,0.00,CLR,,0.00,WeatherDisplay:10.37,2013-11-08 05:17:00,
2013-11-08 00:22:00,55.8,47.3,30.07,NW,313,3.5,3.5,73,0.00,CLR,,0.00,WeatherDisplay:10.37,2013-11-08 05:22:00,
2013-11-08 00:27:00,55.7,47.2,30.07,NW,313,0.0,0.0,73,0.00,CLR,,0.00,WeatherDisplay:10.37,2013-11-08 05:27:00,
2013-11-08 00:32:00,55.5,47.3,30.08,NW,321,4.6,4.6,74,0.00,CLR,,0.00,WeatherDisplay:10.37,2013-11-08 05:32:00,
2013-11-08 00:37:00,55.4,47.2,30.07,NW,312,0.0,0.0,74,0.00,CLR,,0.00,WeatherDisplay:10.37,2013-11-08 05:37:00,
2013-11-08 00:42:00,55.2,47.1,30.08,NW,311,1.2,0.0,74,0.00,CLR,,0.00,WeatherDisplay:10.37,2013-11-08 05:42:00,
2013-11-08 00:47:00,55.0,46.9,30.08,WNW,296,2.3,2.3,74,0.00,CLR,,0.00,WeatherDisplay:10.37,2013-11-08 05:47:00,
2013-11-08 00:52:00,54.8,46.7,30.08,WNW,295,0.0,0.0,74,0.00,CLR,,0.00,WeatherDisplay:10.37,2013-11-08 05:52:00,
2013-11-08 00:57:00,54.6,46.5,30.08,WNW,299,1.2,0.0,74,0.00,CLR,,0.00,WeatherDisplay:10.37,2013-11-08 05:57:00,
2013-11-08 01:02:00,54.5,46.7,30.08,WNW,301,0.0,0.0,75,0.00,CLR,,0.00,WeatherDisplay:10.37,2013-11-08 06:02:00,
2013-11-08 01:07:00,54.3,46.5,30.08,WNW,300,0.0,0.0,75,0.00,CLR,,0.00,WeatherDisplay:10.37,2013-11-08 06:07:00,
2013-11-08 01:12:00,54.1,46.3,30.08,WNW,302,1.2,0.0,75,0.00,CLR,,0.00,WeatherDisplay:10.37,2013-11-08 06:12:00,
2013-11-08 01:17:00,53.9,46.5,30.08,WNW,302,0.0,0.0,76,0.00,CLR,,0.00,WeatherDisplay:10.37,2013-11-08 06:17:00,
2013-11-08 01:22:00,53.7,46.3,30.08,WNW,302,0.0,0.0,76,0.00,CLR,,0.00,WeatherDisplay:10.37,2013-11-08 06:22:00,
2013-11-08 01:27:00,53.6,46.2,30.08,WNW,302,0.0,0.0,76,0.00,CLR,,0.00,WeatherDisplay:10.37,2013-11-08 06:27:00,
2013-11-08 01:32:00,53.4,46.0,30.08,WNW,302,0.0,0.0,76,0.00,CLR,,0.00,WeatherDisplay:10.37,2013-11-08 06:32:00,
2013-11-08 01:37:00,53.2,46.2,30.09,WNW,301,0.0,0.0,77,0.00,CLR,,0.00,WeatherDisplay:10.37,2013-11-08 06:37:00,
2013-11-08 01:42:00,53.0,46.0,30.09,WNW,302,0.0,0.0,77,0.00,CLR,,0.00,WeatherDisplay:10.37,2013-11-08 06:42:00,
2013-11-08 01:47:00,52.9,45.9,30.09,WNW,302,0.0,0.0,77,0.00,CLR,,0.00,WeatherDisplay:10.37,2013-11-08 06:47:00,
2013-11-08 01:52:00,52.7,45.7,30.09,WNW,302,0.0,0.0,77,0.00,CLR,,0.00,WeatherDisplay:10.37,2013-11-08 06:52:00,
2013-11-08 01:57:00,52.6,45.6,30.09,WNW,302,0.0,0.0,77,0.00,CLR,,0.00,WeatherDisplay:10.37,2013-11-08 06:57:00,
2013-11-08 02:02:00,52.5,45.5,30.09,WNW,302,0.0,0.0,77,0.00,CLR,,0.00,WeatherDisplay:10.37,2013-11-08 07:02:00,
2013-11-08 02:07:00,52.4,45.4,30.09,WNW,303,1.2,0.0,77,0.00,CLR,,0.00,WeatherDisplay:10.37,2013-11-08 07:07:00,
2013-11-08 02:12:00,52.3,45.3,30.09,WNW,302,0.0,0.0,77,0.00,CLR,,0.00,WeatherDisplay:10.37,2013-11-08 07:12:00,
2013-11-08 02:17:00,52.2,45.2,30.09,WNW,303,2.3,0.0,77,0.00,CLR,,0.00,WeatherDisplay:10.37,2013-11-08 07:17:00,
2013-11-08 02:22:00,52.1,45.1,30.09,NE,37,2.3,0.0,77,0.00,CLR,,0.00,WeatherDisplay:10.37,2013-11-08 07:22:00,
2013-11-08 02:27:00,52.0,45.0,30.10,NE,36,0.0,0.0,77,0.00,CLR,,0.00,WeatherDisplay:10.37,2013-11-08 07:27:00,
2013-11-08 02:32:00,51.9,44.9,30.10,NNE,32,0.0,0.0,77,0.00,CLR,,0.00,WeatherDisplay:10.37,2013-11-08 07:32:00,
2013-11-08 02:37:00,51.8,44.8,30.10,NW,317,0.0,0.0,77,0.00,CLR,,0.00,WeatherDisplay:10.37,2013-11-08 07:37:00,
2013-11-08 02:42:00,51.7,44.7,30.10,WNW,286,0.0,0.0,77,0.00,CLR,,0.00,WeatherDisplay:10.37,2013-11-08 07:42:00,
2013-11-08 02:47:00,51.6,44.6,30.10,NW,311,0.0,0.0,77,0.00,CLR,,0.00,WeatherDisplay:10.37,2013-11-08 07:47:00,
2013-11-08 02:52:00,51.5,44.5,30.10,NW,311,0.0,0.0,77,0.00,CLR,,0.00,WeatherDisplay:10.37,2013-11-08 07:52:00,
2013-11-08 02:57:00,51.4,44.4,30.10,NNE,22,0.0,0.0,77,0.00,CLR,,0.00,WeatherDisplay:10.37,2013-11-08 07:57:00,
2013-11-08 03:02:00,51.3,44.3,30.11,NNE,20,0.0,0.0,77,0.00,CLR,,0.00,WeatherDisplay:10.37,2013-11-08 08:02:00,
2013-11-08 03:07:00,51.2,44.2,30.11,NNE,20,1.2,0.0,77,0.00,CLR,,0.00,WeatherDisplay:10.37,2013-11-08 08:07:00,
2013-11-08 03:12:00,51.2,43.9,30.11,NNE,21,0.0,0.0,76,0.00,CLR,,0.00,WeatherDisplay:10.37,2013-11-08 08:12:00,
2013-11-08 03:17:00,51.0,43.7,30.11,NNE,17,0.0,0.0,76,0.00,CLR,,0.00,WeatherDisplay:10.37,2013-11-08 08:17:00,
2013-11-08 03:22:00,51.0,43.7,30.11,WNW,294,0.0,0.0,76,0.00,CLR,,0.00,WeatherDisplay:10.37,2013-11-08 08:22:00,
2013-11-08 03:27:00,50.9,43.6,30.11,NW,309,0.0,0.0,76,0.00,CLR,,0.00,WeatherDisplay:10.37,2013-11-08 08:27:00,
2013-11-08 03:32:00,50.8,43.5,30.11,NW,311,0.0,0.0,76,0.00,CLR,,0.00,WeatherDisplay:10.37,2013-11-08 08:32:00,
2013-11-08 03:37:00,50.8,43.5,30.11,North,9,0.0,0.0,76,0.00,CLR,,0.00,WeatherDisplay:10.37,2013-11-08 08:37:00,
2013-11-08 03:42:00,50.6,43.0,30.11,NNW,333,0.0,0.0,75,0.00,CLR,,0.00,WeatherDisplay:10.37,2013-11-08 08:42:00,
2013-11-08 03:47:00,50.5,42.9,30.12,NNW,338,0.0,0.0,75,0.00,CLR,,0.00,WeatherDisplay:10.37,2013-11-08 08:47:00,
2013-11-08 03:52:00,50.5,42.9,30.12,NNW,348,0.0,0.0,75,0.00,CLR,,0.00,WeatherDisplay:10.37,2013-11-08 08:52:00,
2013-11-08 03:57:00,50.4,42.8,30.12,North,350,1.2,0.0,75,0.00,CLR,,0.00,WeatherDisplay:10.37,2013-11-08 08:57:00,
2013-11-08 04:02:00,50.3,42.7,30.12,North,351,0.0,0.0,75,0.00,CLR,,0.00,WeatherDisplay:10.37,2013-11-08 09:02:00,
2013-11-08 04:07:00,50.3,42.7,30.12,North,349,0.0,0.0,75,0.00,CLR,,0.00,WeatherDisplay:10.37,2013-11-08 09:07:00,
2013-11-08 04:12:00,50.2,42.6,30.12,North,350,0.0,0.0,75,0.00,CLR,,0.00,WeatherDisplay:10.37,2013-11-08 09:12:00,
2013-11-08 04:17:00,50.1,42.1,30.12,North,355,0.0,0.0,74,0.00,CLR,,0.00,WeatherDisplay:10.37,2013-11-08 09:17:00,
2013-11-08 04:22:00,50.0,42.4,30.12,North,355,3.5,3.5,75,0.00,CLR,,0.00,WeatherDisplay:10.37,2013-11-08 09:22:00,
2013-11-08 04:27:00,50.0,42.0,30.13,North,355,0.0,0.0,74,0.00,CLR,,0.00,WeatherDisplay:10.37,2013-11-08 09:27:00,
2013-11-08 04:32:00,49.9,41.9,30.13,NE,44,0.0,0.0,74,0.00,CLR,,0.00,WeatherDisplay:10.37,2013-11-08 09:32:00,
2013-11-08 04:37:00,49.9,41.9,30.13,North,360,0.0,0.0,74,0.00,CLR,,0.00,WeatherDisplay:10.37,2013-11-08 09:37:00,
2013-11-08 04:42:00,49.8,41.8,30.14,North,10,0.0,0.0,74,0.00,CLR,,0.00,WeatherDisplay:10.37,2013-11-08 09:42:00,
2013-11-08 04:47:00,49.8,41.5,30.14,North,360,1.2,0.0,73,0.00,CLR,,0.00,WeatherDisplay:10.37,2013-11-08 09:47:00,
2013-11-08 04:52:00,49.7,41.4,30.14,ENE,59,0.0,0.0,73,0.00,CLR,,0.00,WeatherDisplay:10.37,2013-11-08 09:52:00,
2013-11-08 04:57:00,49.7,41.4,30.14,NE,46,3.5,3.5,73,0.00,CLR,,0.00,WeatherDisplay:10.37,2013-11-08 09:57:00,
2013-11-08 05:02:00,49.7,41.4,30.14,NNE,33,0.0,0.0,73,0.00,CLR,,0.00,WeatherDisplay:10.37,2013-11-08 10:02:00,
2013-11-08 05:07:00,49.7,41.4,30.14,North,360,4.6,4.6,73,0.00,CLR,,0.00,WeatherDisplay:10.37,2013-11-08 10:07:00,
2013-11-08 05:12:00,49.7,41.4,30.15,NE,45,0.0,0.0,73,0.00,CLR,,0.00,WeatherDisplay:10.37,2013-11-08 10:12:00,
2013-11-08 05:17:00,49.7,41.0,30.15,NNE,22,0.0,0.1,72,0.00,CLR,,0.00,WeatherDisplay:10.37,2013-11-08 10:17:00,
2013-11-08 05:22:00,49.7,41.0,30.15,NE,40,9.2,9.2,72,0.00,CLR,,0.00,WeatherDisplay:10.37,2013-11-08 10:22:00,
2013-11-08 05:27:00,49.7,41.0,30.15,NNE,33,3.0,3.0,72,0.00,CLR,,0.00,WeatherDisplay:10.37,2013-11-08 10:27:00,
2013-11-08 05:32:00,49.7,41.0,30.16,NNE,15,0.0,0.0,72,0.00,CLR,,0.00,WeatherDisplay:10.37,2013-11-08 10:32:00,
2013-11-08 05:37:00,49.6,40.9,30.16,North,5,4.6,0.0,72,0.00,CLR,,0.00,WeatherDisplay:10.37,2013-11-08 10:37:00,
2013-11-08 05:42:00,49.5,40.8,30.16,NNE,26,3.5,3.5,72,0.00,CLR,,0.00,WeatherDisplay:10.37,2013-11-08 10:42:00,
2013-11-08 05:47:00,49.4,40.7,30.16,NE,40,1.2,0.0,72,0.00,CLR,,0.00,WeatherDisplay:10.37,2013-11-08 10:47:00,
2013-11-08 05:52:00,49.3,40.7,30.16,NE,41,4.6,4.6,72,0.00,CLR,,0.00,WeatherDisplay:10.37,2013-11-08 10:52:00,
2013-11-08 05:57:00,49.2,40.6,30.17,NNE,30,1.2,0.0,72,0.00,CLR,,0.00,WeatherDisplay:10.37,2013-11-08 10:57:00,
2013-11-08 06:02:00,49.2,40.6,30.17,NE,54,1.2,0.0,72,0.00,CLR,,0.00,WeatherDisplay:10.37,2013-11-08 11:02:00,
2013-11-08 06:07:00,49.0,40.4,30.17,NE,36,0.0,0.0,72,0.00,CLR,,0.00,WeatherDisplay:10.37,2013-11-08 11:07:00,
2013-11-08 06:12:00,49.0,40.4,30.17,NE,46,1.2,0.0,72,0.00,CLR,,0.00,WeatherDisplay:10.37,2013-11-08 11:12:00,
2013-11-08 06:17:00,48.8,40.5,30.17,NE,34,0.0,0.0,73,0.00,CLR,,0.00,WeatherDisplay:10.37,2013-11-08 11:17:00,
2013-11-08 06:22:00,48.7,40.4,30.17,NE,42,1.2,1.2,73,0.00,CLR,,0.00,WeatherDisplay:10.37,2013-11-08 11:22:00,
2013-11-08 06:27:00,48.6,40.3,30.18,NE,37,0.0,0.0,73,0.00,CLR,,0.00,WeatherDisplay:10.37,2013-11-08 11:27:00,
2013-11-08 06:32:00,48.5,40.2,30.18,NE,34,0.0,0.5,73,0.00,CLR,,0.00,WeatherDisplay:10.37,2013-11-08 11:32:00,
2013-11-08 06:37:00,48.4,40.1,30.18,NE,46,4.6,4.6,73,0.00,CLR,,0.00,WeatherDisplay:10.37,2013-11-08 11:37:00,
2013-11-08 06:42:00,48.3,40.0,30.18,NNE,29,2.3,2.3,73,0.00,CLR,,0.00,WeatherDisplay:10.37,2013-11-08 11:42:00,
2013-11-08 06:47:00,48.1,39.9,30.18,NE,44,6.9,6.9,73,0.00,CLR,,0.00,WeatherDisplay:10.37,2013-11-08 11:47:00,
2013-11-08 06:52:00,48.1,39.9,30.18,NNE,28,9.2,9.2,73,0.00,CLR,,0.00,WeatherDisplay:10.37,2013-11-08 11:52:00,
2013-11-08 06:57:00,48.0,39.8,30.19,NNE,24,4.6,4.6,73,0.00,CLR,,0.00,WeatherDisplay:10.37,2013-11-08 11:57:00,
2013-11-08 07:02:00,48.0,39.8,30.19,NE,44,3.5,3.5,73,0.00,CLR,,0.00,WeatherDisplay:10.37,2013-11-08 12:02:00,
2013-11-08 07:07:00,48.1,39.9,30.19,NNE,15,4.6,4.6,73,0.00,CLR,,0.00,WeatherDisplay:10.37,2013-11-08 12:07:00,
2013-11-08 07:12:00,48.1,39.9,30.20,NE,36,6.9,6.9,73,0.00,CLR,,0.00,WeatherDisplay:10.37,2013-11-08 12:12:00,
2013-11-08 07:17:00,48.2,41.0,30.20,East,82,7.0,7.0,76,0.00,CLR,,0.00,WeatherDisplay:10.37,2013-11-08 12:17:00,
2013-11-08 07:22:00,48.3,40.0,30.20,NE,49,12.7,12.7,73,0.00,CLR,,0.00,WeatherDisplay:10.37,2013-11-08 12:22:00,
2013-11-08 07:27:00,48.4,39.8,30.20,NNE,31,11.5,11.5,72,0.00,CLR,,0.00,WeatherDisplay:10.37,2013-11-08 12:27:00,
2013-11-08 07:32:00,48.7,39.7,30.21,NNE,22,11.5,11.5,71,0.00,CLR,,0.00,WeatherDisplay:10.37,2013-11-08 12:32:00,
2013-11-08 07:37:00,48.9,39.9,30.21,NE,45,6.9,6.9,71,0.00,CLR,,0.00,WeatherDisplay:10.37,2013-11-08 12:37:00,
2013-11-08 07:42:00,49.2,40.2,30.21,NNE,29,6.9,6.9,71,0.00,CLR,,0.00,WeatherDisplay:10.37,2013-11-08 12:42:00,
2013-11-08 07:47:00,49.3,39.6,30.22,ENE,75,8.1,8.1,69,0.00,CLR,,0.00,WeatherDisplay:10.37,2013-11-08 12:47:00,
2013-11-08 07:52:00,49.4,39.7,30.22,NE,49,10.4,10.4,69,0.00,CLR,,0.00,WeatherDisplay:10.37,2013-11-08 12:52:00,
2013-11-08 07:57:00,49.7,39.9,30.22,NE,51,11.5,11.5,69,0.00,CLR,,0.00,WeatherDisplay:10.37,2013-11-08 12:57:00,
2013-11-08 08:02:00,49.8,39.7,30.22,NE,40,11.5,11.5,68,0.00,CLR,,0.00,WeatherDisplay:10.37,2013-11-08 13:02:00,
2013-11-08 08:07:00,49.9,40.1,30.22,NE,40,5.8,5.8,69,0.00,CLR,,0.00,WeatherDisplay:10.37,2013-11-08 13:07:00,
2013-11-08 08:12:00,50.3,39.8,30.22,ENE,60,13.8,13.8,67,0.00,CLR,,0.00,WeatherDisplay:10.37,2013-11-08 13:12:00,
2013-11-08 08:17:00,50.7,39.7,30.22,NNE,27,9.2,9.2,66,0.00,CLR,,0.00,WeatherDisplay:10.37,2013-11-08 13:17:00,
2013-11-08 08:22:00,51.1,39.7,30.23,NE,40,15.0,15.0,65,0.00,CLR,,0.00,WeatherDisplay:10.37,2013-11-08 13:22:00,
2013-11-08 08:27:00,51.4,39.6,30.23,NNE,21,11.5,11.5,64,0.00,CLR,,0.00,WeatherDisplay:10.37,2013-11-08 13:27:00,
2013-11-08 08:32:00,51.6,39.8,30.23,NE,45,11.5,11.5,64,0.00,CLR,,0.00,WeatherDisplay:10.37,2013-11-08 13:32:00,
2013-11-08 08:37:00,51.9,39.7,30.23,NE,53,8.1,8.1,63,0.00,CLR,,0.00,WeatherDisplay:10.37,2013-11-08 13:37:00,
2013-11-08 08:42:00,52.2,39.1,30.23,NNE,22,12.7,12.7,61,0.00,CLR,,0.00,WeatherDisplay:10.37,2013-11-08 13:42:00,
2013-11-08 08:47:00,52.4,39.8,30.23,NE,45,8.1,8.1,62,0.00,CLR,,0.00,WeatherDisplay:10.37,2013-11-08 13:47:00,
2013-11-08 08:52:00,52.8,40.1,30.24,NE,51,12.0,12.0,62,0.00,CLR,,0.00,WeatherDisplay:10.37,2013-11-08 13:52:00,
2013-11-08 08:57:00,53.2,39.2,30.24,East,89,11.5,11.5,59,0.00,CLR,,0.00,WeatherDisplay:10.37,2013-11-08 13:57:00,
2013-11-08 09:02:00,53.3,39.3,30.24,ENE,74,9.2,9.2,59,0.00,CLR,,0.00,WeatherDisplay:10.37,2013-11-08 14:02:00,
2013-11-08 09:07:00,53.6,40.0,30.24,East,79,6.9,6.9,60,0.00,CLR,,0.00,WeatherDisplay:10.37,2013-11-08 14:07:00,
2013-11-08 09:12:00,54.0,40.0,30.24,NE,34,11.5,11.5,59,0.00,CLR,,0.00,WeatherDisplay:10.37,2013-11-08 14:12:00,
2013-11-08 09:17:00,54.1,39.6,30.25,NE,51,12.7,12.7,58,0.00,CLR,,0.00,WeatherDisplay:10.37,2013-11-08 14:17:00,
2013-11-08 09:22:00,54.1,39.6,30.25,NNW,342,11.5,11.5,58,0.00,CLR,,0.00,WeatherDisplay:10.37,2013-11-08 14:22:00,
2013-11-08 09:27:00,54.3,39.8,30.25,East,82,9.2,9.2,58,0.00,CLR,,0.00,WeatherDisplay:10.37,2013-11-08 14:27:00,
2013-11-08 09:32:00,54.5,39.6,30.25,NE,46,11.5,11.5,57,0.00,CLR,,0.00,WeatherDisplay:10.37,2013-11-08 14:32:00,
2013-11-08 09:37:00,54.7,40.2,30.25,East,81,13.8,13.8,58,0.00,CLR,,0.00,WeatherDisplay:10.37,2013-11-08 14:37:00,
2013-11-08 09:42:00,54.9,39.5,30.25,NNE,29,13.8,13.8,56,0.00,CLR,,0.00,WeatherDisplay:10.37,2013-11-08 14:42:00,
2013-11-08 09:47:00,55.1,40.1,30.26,ENE,76,13.0,13.0,57,0.00,CLR,,0.00,WeatherDisplay:10.37,2013-11-08 14:47:00,
2013-11-08 09:52:00,55.3,39.4,30.25,NE,56,13.8,13.8,55,0.00,CLR,,0.00,WeatherDisplay:10.37,2013-11-08 14:52:00,
2013-11-08 09:57:00,55.7,39.8,30.25,NNE,29,10.4,10.4,55,0.00,CLR,,0.00,WeatherDisplay:10.37,2013-11-08 14:57:00,
2013-11-08 10:02:00,55.9,39.5,30.25,NNE,22,12.0,12.0,54,0.00,CLR,,0.00,WeatherDisplay:10.37,2013-11-08 15:02:00,
2013-11-08 10:07:00,56.1,39.7,30.25,ENE,65,10.4,10.4,54,0.00,CLR,,0.00,WeatherDisplay:10.37,2013-11-08 15:07:00,
2013-11-08 10:12:00,56.4,40.0,30.25,ENE,58,11.5,11.5,54,0.00,CLR,,0.00,WeatherDisplay:10.37,2013-11-08 15:12:00,
2013-11-08 10:17:00,56.9,40.4,30.26,NE,37,11.5,11.5,54,0.00,CLR,,0.00,WeatherDisplay:10.37,2013-11-08 15:17:00,
2013-11-08 10:22:00,57.1,39.6,30.26,NNE,28,13.0,13.0,52,0.00,CLR,,0.00,WeatherDisplay:10.37,2013-11-08 15:22:00,
2013-11-08 10:27:00,57.2,39.7,30.26,East,95,10.4,10.4,52,0.00,CLR,,0.00,WeatherDisplay:10.37,2013-11-08 15:27:00,
2013-11-08 10:32:00,57.4,38.9,30.26,NE,56,15.0,15.0,50,0.00,CLR,,0.00,WeatherDisplay:10.37,2013-11-08 15:32:00,
2013-11-08 10:37:00,57.3,38.8,30.26,NNE,22,12.7,12.7,50,0.00,CLR,,0.00,WeatherDisplay:10.37,2013-11-08 15:37:00,
2013-11-08 10:42:00,57.4,39.4,30.26,ENE,57,12.0,12.0,51,0.00,CLR,,0.00,WeatherDisplay:10.37,2013-11-08 15:42:00,
2013-11-08 10:47:00,57.5,38.5,30.26,NE,46,11.5,11.5,49,0.00,CLR,,0.00,WeatherDisplay:10.37,2013-11-08 15:47:00,
2013-11-08 10:52:00,57.8,39.3,30.26,North,5,10.4,10.4,50,0.00,CLR,,0.00,WeatherDisplay:10.37,2013-11-08 15:52:00,
2013-11-08 10:57:00,58.2,39.1,30.26,NNE,28,10.4,10.4,49,0.00,CLR,,0.00,WeatherDisplay:10.37,2013-11-08 15:57:00,
2013-11-08 11:02:00,58.4,39.8,30.25,ENE,57,9.0,9.0,50,0.00,CLR,,0.00,WeatherDisplay:10.37,2013-11-08 16:02:00,
2013-11-08 11:07:00,58.6,39.0,30.26,NNE,27,9.2,9.2,48,0.00,CLR,,0.00,WeatherDisplay:10.37,2013-11-08 16:07:00,
2013-11-08 11:12:00,59.0,39.9,30.26,NNE,22,6.9,6.9,49,0.00,CLR,,0.00,WeatherDisplay:10.37,2013-11-08 16:12:00,
2013-11-08 11:17:00,59.0,39.9,30.25,NNE,28,9.2,9.2,49,0.00,CLR,,0.00,WeatherDisplay:10.37,2013-11-08 16:17:00,
2013-11-08 11:22:00,59.5,39.8,30.25,NNE,17,11.0,11.0,48,0.00,CLR,,0.00,WeatherDisplay:10.37,2013-11-08 16:22:00,
2013-11-08 11:27:00,59.4,39.1,30.25,East,95,13.8,13.8,47,0.00,CLR,,0.00,WeatherDisplay:10.37,2013-11-08 16:27:00,
2013-11-08 11:32:00,59.6,39.9,30.25,East,84,11.5,11.5,48,0.00,CLR,,0.00,WeatherDisplay:10.37,2013-11-08 16:32:00,
2013-11-08 11:37:00,59.8,40.1,30.25,ENE,71,9.2,9.2,48,0.00,CLR,,0.00,WeatherDisplay:10.37,2013-11-08 16:37:00,
2013-11-08 11:44:00,60.5,40.2,30.25,NE,49,8.1,8.1,47,0.00,CLR,,0.00,WeatherDisplay:10.37,2013-11-08 16:44:00,
2013-11-08 11:56:00,61.1,40.7,30.24,North,360,10.4,10.4,47,0.00,CLR,,0.00,WeatherDisplay:10.37,2013-11-08 16:56:00,
2013-11-08 12:01:00,61.6,41.7,30.24,NE,43,3.5,3.5,48,0.00,CLR,,0.00,WeatherDisplay:10.37,2013-11-08 17:01:00,
2013-11-08 12:06:00,62.0,40.4,30.24,NE,41,8.1,8.1,45,0.00,CLR,,0.00,WeatherDisplay:10.37,2013-11-08 17:06:00,
2013-11-08 12:11:00,61.8,40.2,30.23,East,90,8.1,8.1,45,0.00,CLR,,0.00,WeatherDisplay:10.37,2013-11-08 17:11:00,
2013-11-08 12:16:00,62.3,40.1,30.24,NE,36,10.4,10.4,44,0.00,CLR,,0.00,WeatherDisplay:10.37,2013-11-08 17:16:00,
2013-11-08 12:21:00,62.4,40.2,30.23,ENE,68,8.1,8.1,44,0.00,CLR,,0.00,WeatherDisplay:10.37,2013-11-08 17:21:00,
2013-11-08 12:26:00,62.5,40.3,30.23,NE,55,3.5,3.5,44,0.00,CLR,,0.00,WeatherDisplay:10.37,2013-11-08 17:26:00,
2013-11-08 12:31:00,62.6,39.8,30.23,ENE,67,9.2,9.2,43,0.00,CLR,,0.00,WeatherDisplay:10.37,2013-11-08 17:31:00,
2013-11-08 12:36:00,63.0,40.7,30.23,NE,38,9.2,9.2,44,0.00,CLR,,0.00,WeatherDisplay:10.37,2013-11-08 17:36:00,
2013-11-08 12:41:00,62.9,40.0,30.23,NE,40,16.1,16.1,43,0.00,CLR,,0.00,WeatherDisplay:10.37,2013-11-08 17:41:00,
2013-11-08 12:46:00,62.6,40.4,30.22,NNE,32,4.0,4.0,44,0.00,CLR,,0.00,WeatherDisplay:10.37,2013-11-08 17:46:00,
2013-11-08 12:51:00,62.6,39.2,30.22,East,90,9.2,9.2,42,0.00,CLR,,0.00,WeatherDisplay:10.37,2013-11-08 17:51:00,
2013-11-08 12:56:00,62.3,40.1,30.22,ENE,75,9.2,9.2,44,0.00,CLR,,0.00,WeatherDisplay:10.37,2013-11-08 17:56:00,
2013-11-08 13:01:00,62.3,40.7,30.22,NNE,22,8.1,8.1,45,0.00,CLR,,0.00,WeatherDisplay:10.37,2013-11-08 18:01:00,
2013-11-08 13:06:00,62.9,40.6,30.22,ENE,69,9.2,9.2,44,0.00,CLR,,0.00,WeatherDisplay:10.37,2013-11-08 18:06:00,
2013-11-08 13:11:00,62.9,40.6,30.22,NNE,32,9.2,9.2,44,0.00,CLR,,0.00,WeatherDisplay:10.37,2013-11-08 18:11:00,
2013-11-08 13:16:00,63.0,40.7,30.22,ENE,78,11.5,11.5,44,0.00,CLR,,0.00,WeatherDisplay:10.37,2013-11-08 18:16:00,
2013-11-08 13:21:00,63.0,40.1,30.21,NNE,33,5.8,5.8,43,0.00,CLR,,0.00,WeatherDisplay:10.37,2013-11-08 18:21:00,
2013-11-08 13:26:00,63.3,41.0,30.21,NE,42,4.6,4.6,44,0.00,CLR,,0.00,WeatherDisplay:10.37,2013-11-08 18:26:00,
2013-11-08 13:31:00,63.7,41.4,30.21,ENE,68,10.0,10.0,44,0.00,CLR,,0.00,WeatherDisplay:10.37,2013-11-08 18:31:00,
2013-11-08 13:36:00,63.8,41.5,30.21,East,79,8.1,8.1,44,0.00,CLR,,0.00,WeatherDisplay:10.37,2013-11-08 18:36:00,
2013-11-08 13:41:00,63.8,40.3,30.21,NNE,12,8.1,8.1,42,0.00,CLR,,0.00,WeatherDisplay:10.37,2013-11-08 18:41:00,
2013-11-08 13:46:00,64.0,40.4,30.21,NNE,30,12.7,12.7,42,0.00,CLR,,0.00,WeatherDisplay:10.37,2013-11-08 18:46:00,
2013-11-08 13:51:00,64.0,40.4,30.21,ENE,59,8.1,8.1,42,0.00,CLR,,0.00,WeatherDisplay:10.37,2013-11-08 18:51:00,
2013-11-08 13:56:00,64.1,40.5,30.21,East,86,8.1,8.1,42,0.00,CLR,,0.00,WeatherDisplay:10.37,2013-11-08 18:56:00,
2013-11-08 14:01:00,64.0,41.0,30.20,North,355,3.5,3.5,43,0.00,CLR,,0.00,WeatherDisplay:10.37,2013-11-08 19:01:00,
2013-11-08 14:06:00,64.2,40.6,30.21,NE,49,8.1,8.1,42,0.00,CLR,,0.00,WeatherDisplay:10.37,2013-11-08 19:06:00,
2013-11-08 14:11:00,64.5,40.9,30.20,NE,55,3.5,3.5,42,0.00,CLR,,0.00,WeatherDisplay:10.37,2013-11-08 19:11:00,
2013-11-08 14:16:00,64.6,40.4,30.20,NNE,30,8.0,8.0,41,0.00,CLR,,0.00,WeatherDisplay:10.37,2013-11-08 19:16:00,
2013-11-08 14:21:00,64.6,40.4,30.20,NE,42,9.2,9.2,41,0.00,CLR,,0.00,WeatherDisplay:10.37,2013-11-08 19:21:00,
2013-11-08 14:26:00,64.3,41.3,30.20,North,9,13.8,13.8,43,0.00,CLR,,0.00,WeatherDisplay:10.37,2013-11-08 19:26:00,
2013-11-08 14:31:00,64.1,39.9,30.20,NE,39,10.4,10.4,41,0.00,CLR,,0.00,WeatherDisplay:10.37,2013-11-08 19:31:00,
2013-11-08 14:36:00,64.1,40.5,30.20,NE,37,10.4,10.4,42,0.00,CLR,,0.00,WeatherDisplay:10.37,2013-11-08 19:36:00,
2013-11-08 14:41:00,64.1,39.9,30.20,NNE,26,7.0,7.0,41,0.00,CLR,,0.00,WeatherDisplay:10.37,2013-11-08 19:41:00,
2013-11-08 14:46:00,64.2,41.2,30.20,NNE,17,6.9,6.9,43,0.00,CLR,,0.00,WeatherDisplay:10.37,2013-11-08 19:46:00,
2013-11-08 14:51:00,64.0,40.4,30.20,East,80,8.1,8.1,42,0.00,CLR,,0.00,WeatherDisplay:10.37,2013-11-08 19:51:00,
2013-11-08 14:56:00,64.0,41.0,30.20,NNE,27,10.4,10.4,43,0.00,CLR,,0.00,WeatherDisplay:10.37,2013-11-08 19:56:00,
2013-11-08 15:01:00,64.3,41.3,30.20,NNW,335,5.8,5.8,43,0.00,CLR,,0.00,WeatherDisplay:10.37,2013-11-08 20:01:00,
2013-11-08 15:06:00,64.6,41.6,30.20,NNE,26,8.1,8.1,43,0.00,CLR,,0.00,WeatherDisplay:10.37,2013-11-08 20:06:00,
2013-11-08 15:11:00,64.4,41.4,30.20,NE,44,7.0,7.0,43,0.00,CLR,,0.00,WeatherDisplay:10.37,2013-11-08 20:11:00,
2013-11-08 15:16:00,64.5,41.5,30.20,NE,54,5.0,5.0,43,0.00,CLR,,0.00,WeatherDisplay:10.37,2013-11-08 20:16:00,
2013-11-08 15:21:00,64.3,41.3,30.20,NE,44,4.6,4.6,43,0.00,CLR,,0.00,WeatherDisplay:10.37,2013-11-08 20:21:00,
2013-11-08 15:26:00,64.4,41.4,30.20,NE,36,6.9,6.9,43,0.00,CLR,,0.00,WeatherDisplay:10.37,2013-11-08 20:26:00,
2013-11-08 15:31:00,64.5,42.1,30.20,NE,54,7.0,7.0,44,0.00,CLR,,0.00,WeatherDisplay:10.37,2013-11-08 20:31:00,
2013-11-08 15:36:00,64.5,41.5,30.20,ENE,72,2.3,2.3,43,0.00,CLR,,0.00,WeatherDisplay:10.37,2013-11-08 20:36:00,
2013-11-08 15:41:00,64.4,40.8,30.20,East,96,6.9,6.9,42,0.00,CLR,,0.00,WeatherDisplay:10.37,2013-11-08 20:41:00,
2013-11-08 15:46:00,64.1,41.1,30.20,North,360,6.9,6.9,43,0.00,CLR,,0.00,WeatherDisplay:10.37,2013-11-08 20:46:00,
2013-11-08 15:51:00,64.1,41.1,30.20,NE,45,8.1,8.1,43,0.00,CLR,,0.00,WeatherDisplay:10.37,2013-11-08 20:51:00,
2013-11-08 15:56:00,64.1,41.7,30.20,North,10,3.5,3.5,44,0.00,CLR,,0.00,WeatherDisplay:10.37,2013-11-08 20:56:00,
2013-11-08 16:01:00,64.2,41.8,30.20,East,80,3.5,3.5,44,0.00,CLR,,0.00,WeatherDisplay:10.37,2013-11-08 21:01:00,
2013-11-08 16:06:00,64.1,41.1,30.20,NNE,22,3.5,3.5,43,0.00,CLR,,0.00,WeatherDisplay:10.37,2013-11-08 21:06:00,
2013-11-08 16:11:00,64.0,41.0,30.20,ENE,63,6.9,6.9,43,0.00,CLR,,0.00,WeatherDisplay:10.37,2013-11-08 21:11:00,
2013-11-08 16:28:00,63.1,41.4,30.20,NE,46,3.5,3.5,45,0.00,CLR,,0.00,WeatherDisplay:10.37,2013-11-08 21:28:00,
2013-11-08 16:33:00,62.8,41.1,30.20,NE,46,0.0,0.0,45,0.00,CLR,,0.00,WeatherDisplay:10.37,2013-11-08 21:33:00,
2013-11-08 16:38:00,62.4,41.3,30.20,NE,40,3.5,3.5,46,0.00,CLR,,0.00,WeatherDisplay:10.37,2013-11-08 21:38:00,
2013-11-08 16:43:00,62.0,41.0,30.20,NE,40,0.0,0.0,46,0.00,CLR,,0.00,WeatherDisplay:10.37,2013-11-08 21:43:00,
2013-11-08 16:48:00,61.6,41.2,30.20,NE,38,0.0,0.0,47,0.00,CLR,,0.00,WeatherDisplay:10.37,2013-11-08 21:48:00,
2013-11-08 16:53:00,61.3,41.4,30.21,NE,38,0.0,0.0,48,0.00,CLR,,0.00,WeatherDisplay:10.37,2013-11-08 21:53:00,
2013-11-08 16:58:00,61.0,41.2,30.21,NE,37,0.0,0.0,48,0.00,CLR,,0.00,WeatherDisplay:10.37,2013-11-08 21:58:00,
2013-11-08 17:03:00,60.8,42.0,30.21,NE,37,0.0,0.0,50,0.00,CLR,,0.00,WeatherDisplay:10.37,2013-11-08 22:03:00,
2013-11-08 17:08:00,60.6,41.8,30.20,NE,37,0.0,0.0,50,0.00,CLR,,0.00,WeatherDisplay:10.37,2013-11-08 22:08:00,
2013-11-08 17:13:00,60.4,42.7,30.21,NE,37,0.0,0.0,52,0.00,CLR,,0.00,WeatherDisplay:10.37,2013-11-08 22:13:00,
2013-11-08 17:18:00,60.2,44.0,30.21,NE,37,0.0,0.0,55,0.00,CLR,,0.00,WeatherDisplay:10.37,2013-11-08 22:18:00,
2013-11-08 17:23:00,60.0,43.8,30.21,NE,37,0.0,0.0,55,0.00,CLR,,0.00,WeatherDisplay:10.37,2013-11-08 22:23:00,
2013-11-08 17:28:00,59.6,43.9,30.21,NE,37,0.0,0.0,56,0.00,CLR,,0.00,WeatherDisplay:10.37,2013-11-08 22:28:00,
2013-11-08 17:33:00,59.1,43.9,30.21,NE,37,0.0,0.0,57,0.00,CLR,,0.00,WeatherDisplay:10.37,2013-11-08 22:33:00,
2013-11-08 17:38:00,59.0,44.7,30.21,NE,37,0.0,0.0,59,0.00,CLR,,0.00,WeatherDisplay:10.37,2013-11-08 22:38:00,
2013-11-08 17:43:00,58.4,44.1,30.22,NE,37,0.0,0.0,59,0.00,CLR,,0.00,WeatherDisplay:10.37,2013-11-08 22:43:00,
2013-11-08 17:48:00,57.9,44.1,30.21,NE,37,0.0,0.0,60,0.00,CLR,,0.00,WeatherDisplay:10.37,2013-11-08 22:48:00,
2013-11-08 17:53:00,57.4,43.6,30.22,NE,37,0.0,0.0,60,0.00,CLR,,0.00,WeatherDisplay:10.37,2013-11-08 22:53:00,
2013-11-08 17:58:00,56.8,43.5,30.22,NE,37,0.0,0.0,61,0.00,CLR,,0.00,WeatherDisplay:10.37,2013-11-08 22:58:00,
2013-11-08 18:03:00,56.4,44.0,30.22,NE,37,0.0,0.0,63,0.00,CLR,,0.00,WeatherDisplay:10.37,2013-11-08 23:03:00,
2013-11-08 18:08:00,55.7,43.7,30.23,NE,37,0.0,0.0,64,0.00,CLR,,0.00,WeatherDisplay:10.37,2013-11-08 23:08:00,
2013-11-08 18:13:00,55.0,43.4,30.23,NE,37,0.0,0.0,65,0.00,CLR,,0.00,WeatherDisplay:10.37,2013-11-08 23:13:00,
2013-11-08 18:18:00,54.5,43.4,30.23,NE,37,0.0,0.0,66,0.00,CLR,,0.00,WeatherDisplay:10.37,2013-11-08 23:18:00,
2013-11-08 18:23:00,54.1,43.8,30.23,NE,37,0.0,0.0,68,0.00,CLR,,0.00,WeatherDisplay:10.37,2013-11-08 23:23:00,
2013-11-08 18:28:00,53.6,43.7,30.23,NE,37,0.0,0.0,69,0.00,CLR,,0.00,WeatherDisplay:10.37,2013-11-08 23:28:00,
2013-11-08 18:33:00,53.1,43.9,30.23,NE,37,0.0,0.0,71,0.00,CLR,,0.00,WeatherDisplay:10.37,2013-11-08 23:33:00,
2013-11-08 18:38:00,52.6,43.8,30.23,NE,37,0.0,0.0,72,0.00,CLR,,0.00,WeatherDisplay:10.37,2013-11-08 23:38:00,
2013-11-08 18:43:00,52.1,44.1,30.23,NE,37,0.0,0.0,74,0.00,CLR,,0.00,WeatherDisplay:10.37,2013-11-08 23:43:00,
2013-11-08 18:48:00,51.5,43.8,30.23,NE,37,0.0,0.0,75,0.00,CLR,,0.00,WeatherDisplay:10.37,2013-11-08 23:48:00,
2013-11-08 18:53:00,51.1,43.8,30.23,NE,37,0.0,0.0,76,0.00,CLR,,0.00,WeatherDisplay:10.37,2013-11-08 23:53:00,
2013-11-08 18:58:00,50.7,43.1,30.23,NE,36,0.0,0.0,75,0.00,CLR,,0.00,WeatherDisplay:10.37,2013-11-08 23:58:00,
2013-11-08 19:03:00,50.4,43.1,30.24,NE,37,0.0,0.0,76,0.00,CLR,,0.00,WeatherDisplay:10.37,2013-11-09 00:03:00,
2013-11-08 19:08:00,50.0,43.4,30.24,NE,37,0.0,0.0,78,0.00,CLR,,0.00,WeatherDisplay:10.37,2013-11-09 00:08:00,
2013-11-08 19:13:00,49.6,43.4,30.24,NE,36,0.0,0.0,79,0.00,CLR,,0.00,WeatherDisplay:10.37,2013-11-09 00:13:00,
2013-11-08 19:18:00,49.2,43.3,30.24,NE,37,0.0,0.0,80,0.00,CLR,,0.00,WeatherDisplay:10.37,2013-11-09 00:18:00,
2013-11-08 19:23:00,48.9,43.3,30.24,NE,37,0.0,0.0,81,0.00,CLR,,0.00,WeatherDisplay:10.37,2013-11-09 00:23:00,
2013-11-08 19:28:00,48.6,43.0,30.24,NE,37,0.0,0.0,81,0.00,CLR,,0.00,WeatherDisplay:10.37,2013-11-09 00:28:00,
2013-11-08 19:33:00,48.4,43.2,30.24,NE,37,0.0,0.0,82,0.00,CLR,,0.00,WeatherDisplay:10.37,2013-11-09 00:33:00,
2013-11-08 19:38:00,48.1,42.9,30.24,NE,37,0.0,0.0,82,0.00,CLR,,0.00,WeatherDisplay:10.37,2013-11-09 00:38:00,
2013-11-08 19:43:00,47.9,42.7,30.24,NE,37,0.0,0.0,82,0.00,CLR,,0.00,WeatherDisplay:10.37,2013-11-09 00:43:00,
2013-11-08 19:48:00,47.7,42.8,30.24,NE,37,0.0,0.0,83,0.00,CLR,,0.00,WeatherDisplay:10.37,2013-11-09 00:48:00,
2013-11-08 19:53:00,47.4,42.5,30.24,NE,37,0.0,0.0,83,0.00,CLR,,0.00,WeatherDisplay:10.37,2013-11-09 00:53:00,
2013-11-08 19:58:00,47.2,42.6,30.25,NE,37,0.0,0.0,84,0.00,CLR,,0.00,WeatherDisplay:10.37,2013-11-09 00:58:00,
2013-11-08 20:03:00,47.0,42.7,30.25,NE,37,0.0,0.0,85,0.00,CLR,,0.00,WeatherDisplay:10.37,2013-11-09 01:03:00,
2013-11-08 20:08:00,46.8,42.5,30.25,NE,37,0.0,0.0,85,0.00,CLR,,0.00,WeatherDisplay:10.37,2013-11-09 01:08:00,
2013-11-08 20:13:00,46.7,42.7,30.25,NE,37,0.0,0.0,86,0.00,CLR,,0.00,WeatherDisplay:10.37,2013-11-09 01:13:00,
2013-11-08 20:18:00,46.5,42.5,30.25,NE,37,0.0,0.0,86,0.00,CLR,,0.00,WeatherDisplay:10.37,2013-11-09 01:18:00,
2013-11-08 20:23:00,46.4,42.4,30.26,NE,37,0.0,0.0,86,0.00,CLR,,0.00,WeatherDisplay:10.37,2013-11-09 01:23:00,
2013-11-08 20:28:00,46.2,42.2,30.26,NE,37,0.0,0.0,86,0.00,CLR,,0.00,WeatherDisplay:10.37,2013-11-09 01:28:00,
2013-11-08 20:33:00,46.0,42.0,30.26,NE,37,0.0,0.0,86,0.00,CLR,,0.00,WeatherDisplay:10.37,2013-11-09 01:33:00,
2013-11-08 20:38:00,45.9,41.9,30.26,NE,37,0.0,0.0,86,0.00,CLR,,0.00,WeatherDisplay:10.37,2013-11-09 01:38:00,
2013-11-08 20:43:00,45.7,41.8,30.26,NE,37,0.0,0.0,86,0.00,CLR,,0.00,WeatherDisplay:10.37,2013-11-09 01:43:00,
2013-11-08 20:48:00,45.6,41.7,30.26,NE,37,0.0,0.0,86,0.00,CLR,,0.00,WeatherDisplay:10.37,2013-11-09 01:48:00,
2013-11-08 20:53:00,45.4,41.5,30.26,NE,36,0.0,0.0,86,0.00,CLR,,0.00,WeatherDisplay:10.37,2013-11-09 01:53:00,
2013-11-08 20:58:00,45.2,41.3,30.26,NE,36,0.0,0.0,86,0.00,CLR,,0.00,WeatherDisplay:10.37,2013-11-09 01:58:00,
2013-11-08 21:03:00,45.1,41.2,30.26,NE,36,0.0,0.0,86,0.00,CLR,,0.00,WeatherDisplay:10.37,2013-11-09 02:03:00,
2013-11-08 21:08:00,45.0,41.1,30.26,NE,37,0.0,0.0,86,0.00,CLR,,0.00,WeatherDisplay:10.37,2013-11-09 02:08:00,
2013-11-08 21:13:00,44.8,40.9,30.26,NE,37,0.0,0.0,86,0.00,CLR,,0.00,WeatherDisplay:10.37,2013-11-09 02:13:00,
2013-11-08 21:18:00,44.6,40.7,30.26,NE,37,0.0,0.0,86,0.00,CLR,,0.00,WeatherDisplay:10.37,2013-11-09 02:18:00,
2013-11-08 21:23:00,44.4,40.5,30.26,NE,37,0.0,0.0,86,0.00,CLR,,0.00,WeatherDisplay:10.37,2013-11-09 02:23:00,
2013-11-08 21:28:00,44.3,40.7,30.26,NE,37,0.0,0.0,87,0.00,CLR,,0.00,WeatherDisplay:10.37,2013-11-09 02:28:00,
2013-11-08 21:33:00,44.2,40.6,30.26,NE,37,0.0,0.0,87,0.00,CLR,,0.00,WeatherDisplay:10.37,2013-11-09 02:33:00,
2013-11-08 21:38:00,44.0,40.4,30.26,NE,37,0.0,0.0,87,0.00,CLR,,0.00,WeatherDisplay:10.37,2013-11-09 02:38:00,
2013-11-08 21:43:00,43.9,40.3,30.26,NE,37,0.0,0.0,87,0.00,CLR,,0.00,WeatherDisplay:10.37,2013-11-09 02:43:00,
2013-11-08 21:48:00,43.8,40.2,30.26,NE,37,0.0,0.0,87,0.00,CLR,,0.00,WeatherDisplay:10.37,2013-11-09 02:48:00,
2013-11-08 21:53:00,43.7,40.1,30.26,NE,37,0.0,0.0,87,0.00,CLR,,0.00,WeatherDisplay:10.37,2013-11-09 02:53:00,
2013-11-08 21:58:00,43.6,40.0,30.26,NE,37,0.0,0.0,87,0.00,CLR,,0.00,WeatherDisplay:10.37,2013-11-09 02:58:00,
2013-11-08 22:03:00,43.5,39.9,30.26,NE,37,0.0,0.0,87,0.00,CLR,,0.00,WeatherDisplay:10.37,2013-11-09 03:03:00,
2013-11-08 22:08:00,43.4,39.8,30.26,NE,36,0.0,0.0,87,0.00,CLR,,0.00,WeatherDisplay:10.37,2013-11-09 03:08:00,
2013-11-08 22:13:00,43.4,39.8,30.26,NE,37,0.0,0.0,87,0.00,CLR,,0.00,WeatherDisplay:10.37,2013-11-09 03:13:00,
2013-11-08 22:18:00,43.4,39.5,30.26,NE,37,0.0,0.0,86,0.00,CLR,,0.00,WeatherDisplay:10.37,2013-11-09 03:18:00,
2013-11-08 22:23:00,43.4,39.5,30.26,NE,37,0.0,0.0,86,0.00,CLR,,0.00,WeatherDisplay:10.37,2013-11-09 03:23:00,
2013-11-08 22:28:00,43.6,39.4,30.26,NE,38,0.0,0.0,85,0.00,CLR,,0.00,WeatherDisplay:10.37,2013-11-09 03:28:00,
2013-11-08 22:33:00,43.8,39.3,30.26,NE,38,0.0,0.0,84,0.00,CLR,,0.00,WeatherDisplay:10.37,2013-11-09 03:33:00,
2013-11-08 22:38:00,44.0,39.2,30.26,NE,38,0.0,0.0,83,0.00,CLR,,0.00,WeatherDisplay:10.37,2013-11-09 03:38:00,
2013-11-08 22:43:00,44.3,39.2,30.26,NE,38,0.0,0.0,82,0.00,CLR,,0.00,WeatherDisplay:10.37,2013-11-09 03:43:00,
2013-11-08 22:48:00,44.6,39.1,30.26,NE,38,0.0,0.0,81,0.00,CLR,,0.00,WeatherDisplay:10.37,2013-11-09 03:48:00,
2013-11-08 22:53:00,45.0,38.9,30.26,NE,38,0.0,0.0,79,0.00,CLR,,0.00,WeatherDisplay:10.37,2013-11-09 03:53:00,
2013-11-08 22:58:00,45.2,38.7,30.26,NE,38,0.0,0.0,78,0.00,CLR,,0.00,WeatherDisplay:10.37,2013-11-09 03:58:00,
2013-11-08 23:03:00,45.4,38.9,30.26,NE,38,0.0,0.0,78,0.00,CLR,,0.00,WeatherDisplay:10.37,2013-11-09 04:03:00,
2013-11-08 23:08:00,45.7,38.9,30.26,NE,42,0.0,0.0,77,0.00,CLR,,0.00,WeatherDisplay:10.37,2013-11-09 04:08:00,
2013-11-08 23:13:00,46.0,38.9,30.26,NE,41,0.0,0.0,76,0.00,CLR,,0.00,WeatherDisplay:10.37,2013-11-09 04:13:00,
2013-11-08 23:18:00,46.3,39.1,30.26,NE,43,0.0,0.0,76,0.00,CLR,,0.00,WeatherDisplay:10.37,2013-11-09 04:18:00,
2013-11-08 23:23:00,46.4,38.9,30.26,NE,43,0.0,0.0,75,0.00,CLR,,0.00,WeatherDisplay:10.37,2013-11-09 04:23:00,
2013-11-08 23:28:00,46.5,39.0,30.26,NE,43,0.0,0.0,75,0.00,CLR,,0.00,WeatherDisplay:10.37,2013-11-09 04:28:00,
2013-11-08 23:33:00,46.5,38.7,30.26,NE,42,0.0,0.0,74,0.00,CLR,,0.00,WeatherDisplay:10.37,2013-11-09 04:33:00,
2013-11-08 23:38:00,46.4,38.9,30.26,NE,43,0.0,0.0,75,0.00,CLR,,0.00,WeatherDisplay:10.37,2013-11-09 04:38:00,
2013-11-08 23:43:00,46.3,38.8,30.26,NE,43,0.0,0.0,75,0.00,CLR,,0.00,WeatherDisplay:10.37,2013-11-09 04:43:00,
2013-11-08 23:48:00,46.2,38.4,30.26,NE,42,0.0,0.0,74,0.00,CLR,,0.00,WeatherDisplay:10.37,2013-11-09 04:48:00,
2013-11-08 23:53:00,46.1,38.6,30.26,NE,41,0.0,0.0,75,0.00,CLR,,0.00,WeatherDisplay:10.37,2013-11-09 04:53:00,
2013-11-08 23:58:00,46.1,38.6,30.26,NE,42,0.0,0.0,75,0.00,CLR,,0.00,WeatherDisplay:10.37,2013-11-09 04:58:00,